This is the latest recevied weather packets stored in our database for station/object KD7AWQ. If no packets are shown the sender has not sent any weather packets the latest 10 day(s).
| Time | Temp. | Humidity | Pressure | Rain* | Wind** | Luminosity | Snow |
|---|---|---|---|---|---|---|---|
| 1788386816 | 31.67° C | 34% | 1187.3 hPa | 0 mm | - | 1016 W/m² | - |
| 1788386511 | 30.56° C | 31% | 1187.2 hPa | 0 mm | - | 803 W/m² | - |
| 1788386207 | 30° C | 34% | 1187.4 hPa | 0 mm | - | 370 W/m² | - |
| 1788385902 | 30° C | 32% | 1187.7 hPa | 0 mm | - | 213 W/m² | - |
| 1788385597 | 30° C | 32% | 1187.5 hPa | 0 mm | - | 169 W/m² | - |
| 1788385296 | 30° C | 35% | 1187.5 hPa | 0 mm | - | 152 W/m² | - |
| 1788384992 | 30° C | 34% | 1187.5 hPa | 0 mm | - | 129 W/m² | - |
| 1788384691 | 30° C | 34% | 1187.8 hPa | 0 mm | - | 143 W/m² | - |
| 1788384386 | 30° C | 35% | 1187.5 hPa | 0 mm | - | 167 W/m² | - |
| 1788384082 | 30° C | 36% | 1187.7 hPa | 0 mm | - | 146 W/m² | - |
| 1788383779 | 30° C | 34% | 1187.4 hPa | 0 mm | - | 181 W/m² | - |
| 1788383474 | 30.56° C | 33% | 1187.7 hPa | 0 mm | - | 217 W/m² | - |
| 1788383173 | 30.56° C | 34% | 1187.7 hPa | 0 mm | - | 212 W/m² | - |
| 1788382868 | 30.56° C | 34% | 1187.7 hPa | 0 mm | - | 219 W/m² | - |
| 1788382569 | 31.11° C | 33% | 1187.5 hPa | 0 mm | - | 210 W/m² | - |
| 1788382263 | 31.11° C | 33% | 1187.9 hPa | 0 mm | - | 233 W/m² | - |
| 1788381962 | 31.67° C | 31% | 1187.9 hPa | 0 mm | - | 278 W/m² | - |
| 1788381657 | 32.22° C | 30% | 1187.8 hPa | 0 mm | - | 349 W/m² | - |
| 1788381353 | 32.22° C | 26% | 1188 hPa | 0 mm | - | 331 W/m² | - |
| 1788381052 | 32.22° C | 28% | 1188 hPa | 0 mm | - | 491 W/m² | - |
| 1788380748 | 31.67° C | 28% | 1188.2 hPa | 0 mm | - | 342 W/m² | - |
| 1788380445 | 31.11° C | 29% | 1188.1 hPa | 0 mm | - | 1243 W/m² | - |
| 1788380140 | 31.67° C | 30% | 1188.1 hPa | 0 mm | - | 403 W/m² | - |
| 1788379839 | 32.22° C | 27% | 1188.2 hPa | 0 mm | - | 266 W/m² | - |
| 1788379534 | 32.22° C | 28% | 1188.3 hPa | 0 mm | - | 289 W/m² | - |
* Rain latest hour (hover to see other rain measurements)
** Current wind speed in m/s (hover to see current wind gust speed)